Location: Falkner
(32.6954°N, 86.0502°W)
Time: 12:29:19
(UTC+00:00)

GPS 2-04 Rocket1 - Pass Details

Date: 29 October 2020
Orbit: 417 x 546 km, 35.6° (Epoch: 04 December)

Event Time Altitude Azimuth Distance (km) Brightness Sun altitude
Rises 23:30:39 0° 252° (WSW) 2,585 8.6 -8.0°
Reaches altitude 10° 23:32:50 10° 252° (WSW) 1,724 7.0 -8.5°
Maximum altitude 23:36:49 87° 164° (SSE) 529 2.7 -9.3°
Enters shadow 23:40:22 14° 75° (ENE) 1,562 4.5 -10.0°
